Middleton, WI

4:56 AM CDT on April 22, 2018 (GMT -0500)
Middleton

Weather History for KC29 - October, 2013

Change the Weather History Date:

Saturday, October 26, 2013

  Actual Average (KMSN) Record (KMSN)
Temperature  
Mean Temperature 43 °F -  
Max Temperature 52 °F 56 °F 80 °F (1927)
Min Temperature 35 °F 35 °F 16 °F (1962)
Degree Days  
Heating Degree Days 22    
Moisture  
Dew Point 27 °F    
Average Humidity 50    
Maximum Humidity 77    
Minimum Humidity 32    
Precipitation  
Precipitation 0.00 in - - ()
Sea Level Pressure  
Sea Level Pressure 29.92 in    
Wind  
Wind Speed 13 mph (WNW)    
Max Wind Speed 23 mph    
Max Gust Speed 31 mph    
Visibility 10 miles    
Events      
Averages and records for this station are not official NWS values.
T = Trace of Precipitation, MM = Missing Value Source: NWS Daily Summary

Daily Weather History Graph

Daily Weather History Graph

Search for Another Location

Airport or City:

Astronomy

Oct. 26, 2013 Rise Set
Actual Time 7:25 AM CDT 5:57 PM CDT
Civil Twilight 6:56 AM CDT 6:27 PM CDT
Nautical Twilight 6:23 AM CDT 7:00 PM CDT
Astronomical Twilight 5:50 AM CDT 7:33 PM CDT
Moon No Moon Rise 1:42 PM CDT (10/26)
Length of Visible Light 11h 30m
Length of Day
10h 32m
Waning Gibbous, 53% of the Moon is Illuminated
Oct 26
Waning Gibbous
Oct 26
Last Quarter
Nov 3
New
Nov 9
First Quarter
Nov 17
Full

Hourly Weather History & Observations

Time (CDT) Temp. Windchill Dew Point Humidity Pressure Visibility Wind Dir Wind Speed Gust Speed Precip Events Conditions
12:15 AM 47.5 °F - 22.3 °F 37% 29.89 in 10.0 mi SW 16.1 mph 27.6 mph N/A   Scattered Clouds
12:35 AM 47.5 °F - 22.3 °F 37% 29.88 in 10.0 mi WSW 19.6 mph 31.1 mph N/A   Mostly Cloudy
12:55 AM 47.3 °F - 22.6 °F 38% 29.87 in 10.0 mi SW 18.4 mph 27.6 mph N/A   Mostly Cloudy
1:15 AM 47.3 °F - 22.8 °F 38% 29.85 in 10.0 mi SW 18.4 mph 29.9 mph N/A   Scattered Clouds
1:35 AM 47.1 °F - 23.0 °F 39% 29.83 in 10.0 mi SW 16.1 mph 26.5 mph N/A   Clear
1:55 AM 47.1 °F - 23.0 °F 39% 29.82 in 10.0 mi SW 20.7 mph 29.9 mph N/A   Scattered Clouds
2:15 AM 46.9 °F - 23.4 °F 40% 29.82 in 10.0 mi WSW 17.3 mph 26.5 mph N/A   Scattered Clouds
2:35 AM 46.4 °F 39.8 °F 23.9 °F 41% 29.82 in 10.0 mi WSW 16.1 mph 24.2 mph N/A   Scattered Clouds
2:55 AM 46.4 °F 39.8 °F 23.9 °F 41% 29.81 in 10.0 mi WSW 16.1 mph 24.2 mph N/A   Mostly Cloudy
3:15 AM 45.9 °F 39.1 °F 24.4 °F 43% 29.80 in 10.0 mi WSW 16.1 mph 23.0 mph N/A   Scattered Clouds
3:35 AM 45.7 °F 39.5 °F 24.8 °F 44% 29.79 in 10.0 mi WSW 13.8 mph 26.5 mph N/A   Mostly Cloudy
3:55 AM 45.5 °F 39.9 °F 25.3 °F 45% 29.80 in 10.0 mi WSW 11.5 mph 18.4 mph N/A   Scattered Clouds
4:15 AM 45.1 °F 39.5 °F 25.9 °F 47% 29.78 in 10.0 mi SW 11.5 mph - N/A   Clear
4:35 AM 45.1 °F 39.1 °F 26.6 °F 48% 29.78 in 10.0 mi SW 12.7 mph - N/A   Clear
4:55 AM 45.5 °F 39.6 °F 27.3 °F 49% 29.78 in 10.0 mi WSW 12.7 mph - N/A   Clear
5:15 AM 45.7 °F 40.2 °F 28.2 °F 51% 29.79 in 10.0 mi WSW 11.5 mph 17.3 mph N/A   Clear
5:35 AM 45.5 °F 38.9 °F 28.4 °F 51% 29.79 in 10.0 mi West 15.0 mph 19.6 mph N/A   Clear
5:55 AM 44.6 °F 38.4 °F 29.1 °F 55% 29.79 in 10.0 mi West 12.7 mph 19.6 mph N/A   Clear
6:15 AM 43.9 °F 37.5 °F 29.5 °F 57% 29.79 in 10.0 mi West 12.7 mph 17.3 mph N/A   Clear
6:35 AM 43.2 °F 37.9 °F 29.8 °F 59% 29.80 in 10.0 mi West 9.2 mph - N/A   Clear
6:55 AM 42.6 °F 36.8 °F 30.2 °F 61% 29.80 in 10.0 mi West 10.4 mph - N/A   Clear
7:15 AM 41.9 °F 36.3 °F 30.7 °F 65% 29.81 in 10.0 mi West 9.2 mph - N/A   Clear
7:35 AM 41.9 °F 36.9 °F 31.1 °F 66% 29.81 in 10.0 mi West 8.1 mph - N/A   Clear
7:55 AM 42.1 °F 36.6 °F 32.0 °F 67% 29.82 in 10.0 mi West 9.2 mph - N/A   Clear
8:15 AM 42.8 °F 38.0 °F 32.2 °F 66% 29.83 in 10.0 mi West 8.1 mph - N/A   Clear
8:35 AM 44.4 °F 39.5 °F 33.1 °F 64% 29.83 in 10.0 mi WNW 9.2 mph - N/A   Clear
8:55 AM 46.8 °F - 33.8 °F 61% 29.84 in 10.0 mi WNW 11.5 mph 18.4 mph N/A   Mostly Cloudy
9:15 AM 47.7 °F - 34.5 °F 60% 29.85 in 10.0 mi WNW 10.4 mph 19.6 mph N/A   Scattered Clouds
9:35 AM 48.4 °F - 34.3 °F 58% 29.85 in 10.0 mi WNW 12.7 mph 19.6 mph N/A   Clear
9:55 AM 48.6 °F - 33.3 °F 56% 29.86 in 10.0 mi NW 16.1 mph 23.0 mph N/A   Scattered Clouds
10:15 AM 50.4 °F - 32.0 °F 49% 29.87 in 10.0 mi NNW 18.4 mph 26.5 mph N/A   Scattered Clouds
10:35 AM 49.1 °F - 32.0 °F 52% 29.88 in 10.0 mi NNW 12.7 mph 21.9 mph N/A   Overcast
10:55 AM 50.9 °F - 31.8 °F 48% 29.89 in 10.0 mi NNW 12.7 mph 20.7 mph N/A   Mostly Cloudy
11:15 AM 48.6 °F - 31.3 °F 51% 29.90 in 10.0 mi NW 11.5 mph 19.6 mph N/A   Mostly Cloudy
11:35 AM 49.3 °F - 31.8 °F 51% 29.91 in 10.0 mi NW 13.8 mph 21.9 mph N/A   Overcast
11:55 AM 50.5 °F - 30.4 °F 46% 29.91 in 10.0 mi NW 19.6 mph - N/A   Overcast
12:15 PM 50.7 °F - 28.4 °F 42% 29.92 in 10.0 mi NW 16.1 mph 25.3 mph N/A   Mostly Cloudy
12:35 PM 51.3 °F - 27.3 °F 40% 29.93 in 10.0 mi NNW 20.7 mph 28.8 mph N/A   Mostly Cloudy
12:55 PM 51.6 °F - 24.6 °F 35% 29.93 in 10.0 mi NNW 23.0 mph 28.8 mph N/A   Mostly Cloudy
1:15 PM 51.1 °F - 26.8 °F 39% 29.94 in 10.0 mi NNW 15.0 mph 23.0 mph N/A   Overcast
1:35 PM 49.3 °F - 27.3 °F 43% 29.94 in 10.0 mi NNW 15.0 mph 18.4 mph N/A   Mostly Cloudy
1:55 PM 49.6 °F - 26.1 °F 40% 29.94 in 10.0 mi NNW 20.7 mph 26.5 mph N/A   Overcast
2:15 PM 50.4 °F - 25.0 °F 37% 29.95 in 10.0 mi NNW 17.3 mph 23.0 mph N/A   Overcast
2:35 PM 51.6 °F - 24.4 °F 35% 29.96 in 10.0 mi NW 16.1 mph 23.0 mph N/A   Mostly Cloudy
2:55 PM 51.4 °F - 23.9 °F 34% 29.97 in 10.0 mi NW 12.7 mph 19.6 mph N/A   Mostly Cloudy
3:15 PM 51.3 °F - 22.5 °F 32% 29.98 in 10.0 mi NNW 15.0 mph 25.3 mph N/A   Mostly Cloudy
3:35 PM 50.0 °F - 24.6 °F 37% 29.99 in 10.0 mi NW 12.7 mph - N/A   Mostly Cloudy
3:55 PM 48.9 °F - 22.6 °F 36% 29.99 in 10.0 mi NNW 15.0 mph - N/A   Mostly Cloudy
4:15 PM 48.0 °F - 23.4 °F 38% 30.00 in 10.0 mi NNW 10.4 mph - N/A   Scattered Clouds
4:35 PM 48.9 °F - 23.9 °F 38% 30.00 in 10.0 mi WNW 10.4 mph - N/A   Mostly Cloudy
4:55 PM 49.1 °F - 23.7 °F 37% 30.01 in 10.0 mi NNW 11.5 mph 19.6 mph N/A   Overcast
5:15 PM 47.3 °F - 23.9 °F 40% 30.02 in 10.0 mi NW 11.5 mph - N/A   Mostly Cloudy
5:35 PM 47.1 °F - 24.4 °F 41% 30.02 in 10.0 mi NW 6.9 mph - N/A   Mostly Cloudy
5:55 PM 45.7 °F 42.7 °F 24.3 °F 43% 30.02 in 10.0 mi NW 5.8 mph - N/A   Mostly Cloudy
6:15 PM 46.0 °F 41.9 °F 24.4 °F 43% 30.03 in 10.0 mi WNW 8.1 mph - N/A   Overcast
6:35 PM 45.9 °F 41.7 °F 25.0 °F 44% 30.04 in 10.0 mi NW 8.1 mph - N/A   Overcast
6:55 PM 45.5 °F 42.5 °F 25.9 °F 46% 30.04 in 10.0 mi NW 5.8 mph - N/A   Overcast
7:15 PM 45.3 °F 44.0 °F 26.2 °F 47% 30.05 in 10.0 mi NW 3.5 mph - N/A   Overcast
7:35 PM 44.4 °F 40.5 °F 25.7 °F 48% 30.06 in 10.0 mi NW 6.9 mph - N/A   Overcast
7:55 PM 43.9 °F 41.3 °F 25.7 °F 49% 30.06 in 10.0 mi NNW 4.6 mph - N/A   Overcast
8:15 PM 43.2 °F 41.5 °F 26.1 °F 51% 30.07 in 10.0 mi WNW 3.5 mph - N/A   Overcast
8:35 PM 42.8 °F - 26.6 °F 53% 30.06 in 10.0 mi Calm Calm - N/A   Overcast
8:55 PM 40.5 °F - 28.0 °F 61% 30.06 in 10.0 mi Calm Calm - N/A   Mostly Cloudy
9:15 PM 37.9 °F - 27.3 °F 66% 30.06 in 10.0 mi Calm Calm - N/A   Scattered Clouds
9:35 PM 38.5 °F - 27.3 °F 64% 30.07 in 10.0 mi Calm Calm - N/A   Clear
9:55 PM 36.7 °F - 27.1 °F 68% 30.07 in 10.0 mi Calm Calm - N/A   Clear
10:15 PM 36.3 °F - 27.3 °F 70% 30.07 in 10.0 mi Calm Calm - N/A   Clear
10:35 PM 35.8 °F - 27.7 °F 72% 30.07 in 10.0 mi Calm Calm - N/A   Clear
10:55 PM 35.4 °F - 28.9 °F 77% 30.07 in 10.0 mi Calm Calm - N/A   Clear
11:15 PM 35.6 °F - 28.4 °F 75% 30.06 in 10.0 mi Calm Calm - N/A   Clear
11:35 PM 37.0 °F 33.3 °F 28.4 °F 71% 30.06 in 10.0 mi West 4.6 mph - N/A   Clear
11:55 PM 35.8 °F 31.9 °F 28.4 °F 75% 30.07 in 10.0 mi West 4.6 mph - N/A   Clear